Regional Weather Roundup
Issued by NWS

Home | Current Version | Previous Version | Graphics & Text | Print | Product List | Glossary On
Versions: 1 2 3 4 5 6 7 8 9 10 11 12 13 14 15 16 17 18 19 20 21 22 23 24 25 26 27 28 29 30 31 32 33 34 35 36 37 38 39 40 41 42 43 44 45 46 47 48 49 50
000
ASUS45 KBOI 282310
RWRID

IDAHO REGIONAL WEATHER ROUNDUP
NATIONAL WEATHER SERVICE BOISE ID
500 PM MDT FRI AUG 28 2015

NOTE: "FAIR" INDICATES FEW OR NO CLOUDS BELOW 12000 FEET
WITH NO SIGNIFICANT WEATHER AND/OR OBSTRUCTIONS TO VISIBILITY

IDZ012-014-290000-
SOUTHWEST IDAHO


CITY           SKY/WX    TMP DP  RH WIND       PRES   REMARKS
BOISE          CLOUDY    89  39  17 NW15      29.93F
CALDWELL         N/A     88  45  22 N10       29.93F
MOUNTAIN HOME  PTSUNNY   93  38  14 NW12      29.90F
$$

IDZ016-017-290000-
SOUTHCENTRAL IDAHO


CITY           SKY/WX    TMP DP  RH WIND       PRES   REMARKS
JEROME         PTSUNNY   92  37  14 E8        30.00F
TWIN FALLS     CLOUDY    89  52  28 E9        30.00F
$$

IDZ019>023-290000-
SOUTHEAST IDAHO


CITY           SKY/WX    TMP DP  RH WIND       PRES   REMARKS
IDAHO FALLS    PTSUNNY   89  37  16 W10       30.10F
POCATELLO      MOSUNNY   88  37  16 S13       30.09F
REXBURG        PTSUNNY   87  35  15 SW8       30.11F
$$

IDZ006-010-011-018-031-032-290000-
CENTRAL IDAHO MOUNTAINS


CITY           SKY/WX    TMP DP  RH WIND       PRES   REMARKS
MCCALL         CLOUDY    76  38  25 SW7       30.11F
HAILEY         PTSUNNY   63  46  55 SE12      30.12F
STANLEY          N/A     79  33  19 SE7       30.19F
SALMON         CLOUDY    79  52  38 CALM      29.97F
CHALLIS        CLOUDY    85  33  15 W8        30.06F
$$

IDZ002-004-006-007-026-290000-
NORTHERN IDAHO


CITY           SKY/WX    TMP DP  RH WIND       PRES   REMARKS
LEWISTON       CLOUDY    85  43  22 E10       29.89F
LOWELL           N/A     71  57  61 N3        29.97S
COEUR D`ALENE  CLOUDY    79  46  31 SE6       29.94F
MULLAN PASS    CLOUDY    64  39  39 NW7       30.16F
$$



USA.gov is the U.S. government's official web portal to all federal, state and local government web resources and services.